Ogallala, NE

8:03 AM MST on February 19, 2017 (GMT -0700)
Searle

Weather History for KOGA - May, 2013

Change the Weather History Date:

Friday, May 31, 2013

  Actual Average Record
Temperature  
Mean Temperature 57 °F -  
Max Temperature 70 °F 74 °F 96 °F (1984)
Min Temperature 44 °F 49 °F 34 °F (1964)
Degree Days  
Heating Degree Days 8    
Growing Degree Days 7 (Base 50)    
Moisture  
Dew Point 41 °F    
Average Humidity 58    
Maximum Humidity 90    
Minimum Humidity 31    
Precipitation  
Precipitation 0.00 in - - ()
Sea Level Pressure  
Sea Level Pressure 29.79 in    
Wind  
Wind Speed 15 mph (WNW)    
Max Wind Speed 39 mph    
Max Gust Speed 51 mph    
Visibility 10 miles    
Events Rain    
Averages and records for this station are not official NWS values.
T = Trace of Precipitation, MM = Missing Value Source: NWS Daily Summary

Daily Weather History Graph

Daily Weather History Graph

Search for Another Location

Airport or City:

Trip Planner

Search our weather history database for the weather conditions in past years. The results will help you decide how hot, cold, wet, or windy it might be!

Date:

Astronomy

May. 31, 2013 Rise Set
Actual Time 5:17 AM MDT 8:12 PM MDT
Civil Twilight 4:44 AM MDT 8:45 PM MDT
Nautical Twilight 4:02 AM MDT 9:27 PM MDT
Astronomical Twilight 3:14 AM MDT 10:16 PM MDT
Moon 12:46 AM MDT (5/31) 12:37 PM MDT (5/31)
Length of Visible Light 16h 01m
Length of Day
14h 55m
Waning Gibbous, 51% of the Moon is Illuminated
May 31
Waning Gibbous
May 31
Last Quarter
Jun 8
New
Jun 16
First Quarter
Jun 23
Full

Hourly Weather History & Observations

Time (MDT) Temp. Windchill Dew Point Humidity Pressure Visibility Wind Dir Wind Speed Gust Speed Precip Events Conditions
12:15 AM 52.0 °F - 44.6 °F 76% 29.77 in 10.0 mi West 6.9 mph - N/A   Clear
12:35 AM 51.3 °F - 44.1 °F 76% 29.77 in 10.0 mi WSW 6.9 mph - N/A   Clear
12:55 AM 50.0 °F - 44.1 °F 80% 29.77 in 10.0 mi WSW 8.1 mph - N/A   Clear
1:15 AM 49.6 °F - 43.9 °F 81% 29.77 in 10.0 mi West 6.9 mph - N/A   Clear
1:35 AM 49.3 °F - 43.7 °F 81% 29.76 in 10.0 mi West 8.1 mph - N/A   Clear
1:55 AM 48.2 °F - 43.9 °F 85% 29.76 in 10.0 mi WSW 5.8 mph - N/A   Clear
2:15 AM 48.2 °F - 43.5 °F 84% 29.74 in 10.0 mi West 5.8 mph - N/A   Clear
2:35 AM 48.0 °F - 43.2 °F 83% 29.74 in 10.0 mi West 6.9 mph - N/A   Clear
2:55 AM 47.3 °F - 43.0 °F 85% 29.74 in 10.0 mi Calm Calm - N/A   Clear
3:15 AM 46.6 °F - 42.4 °F 85% 29.74 in 10.0 mi West 6.9 mph - N/A   Clear
3:35 AM 46.8 °F - 42.8 °F 86% 29.74 in 10.0 mi WSW 4.6 mph - N/A   Clear
3:55 AM 45.5 °F 42.5 °F 42.4 °F 89% 29.73 in 10.0 mi WSW 5.8 mph - N/A   Clear
4:15 AM 45.0 °F - 42.1 °F 90% 29.75 in 10.0 mi Calm Calm - N/A   Clear
4:35 AM 44.6 °F 42.2 °F 41.9 °F 90% 29.75 in 10.0 mi South 4.6 mph - N/A   Clear
4:55 AM 45.7 °F 42.0 °F 42.8 °F 90% 29.74 in 10.0 mi WSW 6.9 mph - N/A   Clear
5:15 AM 44.8 °F 41.6 °F 42.1 °F 90% 29.74 in 10.0 mi WSW 5.8 mph - N/A   Clear
5:35 AM 44.8 °F 41.6 °F 41.9 °F 90% 29.74 in 10.0 mi WSW 5.8 mph - N/A   Clear
5:55 AM 46.4 °F 42.9 °F 42.1 °F 85% 29.75 in 10.0 mi WSW 6.9 mph - N/A   Clear
6:15 AM 46.8 °F - 43.0 °F 87% 29.75 in 10.0 mi WSW 6.9 mph - N/A   Clear
6:35 AM 48.7 °F - 43.3 °F 82% 29.76 in 10.0 mi WSW 11.5 mph - N/A   Clear
6:55 AM 49.8 °F - 43.7 °F 79% 29.76 in 10.0 mi WSW 15.0 mph - N/A   Clear
7:15 AM 50.9 °F - 44.2 °F 78% 29.76 in 10.0 mi West 15.0 mph - N/A   Clear
7:35 AM 53.2 °F - 44.4 °F 72% 29.76 in 10.0 mi West 13.8 mph - N/A   Clear
7:55 AM 57.2 °F - 44.1 °F 62% 29.76 in 10.0 mi West 15.0 mph 19.6 mph N/A   Clear
8:15 AM 60.6 °F - 41.2 °F 49% 29.77 in 10.0 mi West 16.1 mph 25.3 mph N/A   Clear
8:35 AM 62.6 °F - 38.7 °F 41% 29.76 in 10.0 mi West 23.0 mph 29.9 mph N/A   Clear
8:55 AM 63.7 °F - 39.2 °F 41% 29.75 in 10.0 mi West 24.2 mph 32.2 mph N/A   Clear
9:15 AM 64.6 °F - 36.7 °F 36% 29.75 in 10.0 mi West 26.5 mph 33.4 mph N/A   Clear
9:35 AM 65.8 °F - 38.3 °F 36% 29.74 in 10.0 mi WNW 24.2 mph 33.4 mph N/A   Clear
9:55 AM 65.5 °F - 37.0 °F 35% 29.74 in 10.0 mi WNW 24.2 mph 31.1 mph N/A   Clear
10:15 AM 67.5 °F - 39.2 °F 36% 29.74 in 10.0 mi WNW 28.8 mph 33.4 mph N/A   Clear
10:35 AM 66.2 °F - 37.4 °F 35% 29.74 in 10.0 mi West 26.5 mph 33.4 mph N/A   Clear
10:55 AM 66.4 °F - 36.5 °F 33% 29.75 in 10.0 mi WNW 28.8 mph 39.1 mph N/A   Clear
11:15 AM 66.7 °F - 36.0 °F 32% 29.76 in 10.0 mi WNW 31.1 mph 36.8 mph N/A   Clear
11:35 AM 67.5 °F - 37.9 °F 34% 29.76 in 10.0 mi WNW 23.0 mph 33.4 mph N/A   Clear
11:55 AM 67.3 °F - 37.2 °F 33% 29.76 in 10.0 mi WNW 25.3 mph 32.2 mph N/A   Scattered Clouds
12:15 PM 68.4 °F - 36.9 °F 31% 29.76 in 10.0 mi WNW 26.5 mph 38.0 mph N/A   Scattered Clouds
12:35 PM 69.4 °F - 38.5 °F 32% 29.76 in 10.0 mi WNW 21.9 mph 32.2 mph N/A   Scattered Clouds
12:55 PM 69.1 °F - 38.8 °F 33% 29.77 in 10.0 mi WNW 21.9 mph 35.7 mph N/A   Scattered Clouds
1:15 PM 68.5 °F - 38.8 °F 34% 29.77 in 10.0 mi WNW 24.2 mph 38.0 mph N/A   Scattered Clouds
1:35 PM 68.0 °F - 38.7 °F 34% 29.77 in 10.0 mi WNW 21.9 mph 32.2 mph N/A   Mostly Cloudy
1:55 PM 68.4 °F - 38.8 °F 34% 29.77 in 10.0 mi WNW 25.3 mph 36.8 mph N/A   Scattered Clouds
2:15 PM 68.4 °F - 38.7 °F 34% 29.77 in 10.0 mi WNW 25.3 mph 38.0 mph N/A   Mostly Cloudy
2:35 PM 69.6 °F - 39.2 °F 33% 29.77 in 10.0 mi WNW 19.6 mph 32.2 mph N/A   Scattered Clouds
2:55 PM 69.4 °F - 38.7 °F 32% 29.78 in 10.0 mi WNW 20.7 mph 35.7 mph N/A   Mostly Cloudy
3:15 PM 70.2 °F - 38.5 °F 31% 29.78 in 10.0 mi WNW 24.2 mph 32.2 mph N/A   Mostly Cloudy
3:35 PM 69.8 °F - 38.1 °F 31% 29.78 in 10.0 mi WNW 23.0 mph 31.1 mph N/A   Mostly Cloudy
3:55 PM 69.8 °F - 38.1 °F 31% 29.78 in 10.0 mi WNW 23.0 mph 33.4 mph N/A   Scattered Clouds
4:15 PM 70.0 °F - 37.8 °F 31% 29.78 in 10.0 mi NW 21.9 mph 35.7 mph N/A   Mostly Cloudy
4:35 PM 68.9 °F - 37.8 °F 32% 29.79 in 10.0 mi NW 26.5 mph 33.4 mph N/A   Overcast
4:55 PM 68.0 °F - 38.1 °F 33% 29.80 in 10.0 mi NW 26.5 mph 33.4 mph N/A   Overcast
5:15 PM 66.9 °F - 37.8 °F 34% 29.80 in 10.0 mi NW 32.2 mph 38.0 mph N/A   Overcast
5:35 PM 64.4 °F - 43.0 °F 46% 29.81 in 10.0 mi NNW 24.2 mph 31.1 mph N/A   Overcast
5:55 PM 63.9 °F - 41.5 °F 44% 29.83 in 10.0 mi NNW 23.0 mph 32.2 mph N/A   Mostly Cloudy
6:15 PM 61.7 °F - 41.5 °F 48% 29.84 in 10.0 mi NNW 31.1 mph 39.1 mph N/A   Mostly Cloudy
6:35 PM 60.4 °F - 40.3 °F 47% 29.85 in 10.0 mi NW 27.6 mph 36.8 mph N/A   Mostly Cloudy
6:55 PM 59.7 °F - 40.8 °F 50% 29.85 in 10.0 mi NW 25.3 mph 34.5 mph N/A   Scattered Clouds
7:15 PM 59.0 °F - 40.5 °F 50% 29.85 in 10.0 mi NW 29.9 mph 40.3 mph N/A   Clear
7:35 PM 58.5 °F - 41.0 °F 52% 29.86 in 10.0 mi NNW 29.9 mph 41.4 mph N/A   Clear
7:55 PM 57.7 °F - 41.0 °F 54% 29.86 in 10.0 mi NW 27.6 mph 39.1 mph N/A   Scattered Clouds
8:15 PM 57.6 °F - 41.0 °F 54% 29.85 in 10.0 mi NNW 32.2 mph 42.6 mph N/A   Mostly Cloudy
8:35 PM 56.8 °F - 41.9 °F 57% 29.87 in 10.0 mi NW 24.2 mph 39.1 mph N/A   Overcast
8:55 PM 56.5 °F - 42.3 °F 59% 29.88 in 10.0 mi NW 35.7 mph 44.9 mph N/A   Overcast
9:15 PM 55.6 °F - 42.8 °F 62% 29.88 in 10.0 mi NW 39.1 mph 50.6 mph N/A   Overcast
9:35 PM 54.9 °F - 43.7 °F 66% 29.90 in 10.0 mi NW 28.8 mph 39.1 mph N/A   Mostly Cloudy
9:55 PM 54.5 °F - 44.2 °F 68% 29.90 in 10.0 mi NW 31.1 mph 38.0 mph N/A   Mostly Cloudy
10:15 PM 53.4 °F - 44.8 °F 73% 29.90 in 10.0 mi NW 32.2 mph 40.3 mph N/A   Mostly Cloudy
10:35 PM 52.3 °F - 45.5 °F 78% 29.88 in 10.0 mi NNW 33.4 mph 40.3 mph N/A   Light Drizzle
10:55 PM 52.0 °F - 44.8 °F 76% 29.89 in 10.0 mi NNW 35.7 mph 48.3 mph N/A Rain Light Rain
11:15 PM 51.8 °F - 45.0 °F 77% 29.90 in 10.0 mi NW 28.8 mph 41.4 mph N/A Rain Light Rain
11:35 PM 51.3 °F - 44.8 °F 78% 29.89 in 10.0 mi NNW 33.4 mph 41.4 mph N/A   Drizzle
11:55 PM 50.9 °F - 45.0 °F 80% 29.90 in 10.0 mi NW 29.9 mph 39.1 mph N/A   Light Drizzle